sat.trackr.live / text

‹ back to catalog

DTC TEST OBJECT B

NORAD 69473 · 2026-128B

PAYLOAD ACTIVE UNKNOWN

§ Identity

Operator
Country
PRC
Launch date
2026-06-09
Launch site
JSC
Launch vehicle
Mass (kg)
RCS (m²)

External: N2YO · Heavens-Above · Gunter

§ Orbital elements

Epoch: 2026-09-19T23:58:31.113408Z

Period
92.60 min
Inclination
55.0005°
Eccentricity
0.0011238
Mean motion
15.54991829 rev/d
Perigee alt
394.6 km
Apogee alt
409.8 km
Semi-major
6,780.3 km
B*
2.3893e-4
RAAN
227.8718°
Arg perigee
143.3591°
Mean anomaly
216.8215°
Rev number
1,596

§ Raw data

DTC TEST OBJECT B1 69473U 26128B   26262.99897122  .00015870  00000+0  23893-3 0  99912 69473  55.0005 227.8718 0011238 143.3591 216.8215 15.54991829 15961

JSON: /api/v1/satellites/69473 · /tle

For live sub-satellite position, see the globe view (requires WebGL).

§ Visibility from observer

Set your observer location to see the next 7 days of passes ≥ 10°. The values pass through the URL so the page stays shareable.

No JS? Fill the form by hand. The geolocation button needs JavaScript.